User: anonymous   Login
Location: La Vergne
(36.0160°N, 86.5820°W)
Time: 15:29:11
(UTC-05:00)
Language:

Cosmos 1703 Rocket - Orbit

View from above orbital plane
View from above orbital plane
View from above satellite
View from above satellite

Ground track
Ground track

The orbit data is extracted from the following two-line orbital elements,

1 16263U 85108B   16271.78326053  .00000154  00000-0  15916-4 0  9997
2 16263  82.5070   0.4772 0021347 129.7899  20.5383 14.82943448665492
Epoch (UTC): 27 September 2016 18:47:53
Eccentricity: 0.0021347
inclination: 82.5070°
perigee height: 605 km
apogee height: 635 km
right ascension of ascending node: 0.4772°
argument of perigee: 129.7899°
revolutions per day: 14.82943448
mean anomaly at epoch: 20.5383°
orbit number at epoch: 66549

The dashed part of the orbit path shows where the satellite is in the earth's shadow,  

DLR